Location: Unspecified
(0.0000°N, 0.0000°E)
Time: 01:01:35
(UTC+00:00)

deb Delta 104 - Pass Details

Date: 14 March 2026
Orbit: 1339 x 1585 km, 100.8° (Epoch: 14 April)

Event Time Altitude Azimuth Distance (km) Brightness Sun altitude
Exits shadow 21:45:39 14° 209° (SSW) 3,485 ? -54.1°
Drops below altitude 10° 21:46:35 10° 207° (SSW) 3,790 ? -54.3°
Sets 21:49:32 0° 203° (SSW) 4,777 ? -55.0°
